Wind_Speed
60 69 71 53 51 50 54 51 46 43 48 52 56 52 46 45 48 58 67 68 59 61 63 56 56 56 55 51 51 53 53 54 55 56 60 65 69 72
52 55 52 59 53 49 46 38 46 47 40 42 53 51 49 52 56 60 57 53 53 52 51 51 51 47 48 49 51 51 54 55 58 62 66 69 72 75
44 45 45 43 62 72 53 46 36 34 37 40 50 54 58 63 52 54 53 46 45 49 48 45 43 46 46 49 50 52 55 59 62 66 69 73 76 79
39 45 41 35 40 52 60 57 50 45 44 46 50 50 47 46 47 43 40 42 42 41 39 42 44 46 46 49 52 56 59 63 67 70 72 75 80 84
49 49 40 40 40 42 48 47 50 42 45 38 34 40 40 40 37 36 35 36 36 38 40 42 44 45 47 52 55 59 63 65 69 73 76 80 83 86
40 43 47 41 36 41 45 44 42 36 34 27 29 36 37 32 31 33 33 34 36 40 41 40 44 46 50 53 60 63 67 70 73 76 79 82 87 92
41 42 40 43 41 39 42 41 37 38 38 34 31 30 30 32 32 32 33 35 36 37 40 42 45 50 56 61 64 68 70 73 76 79 83 88 94 93
29 41 31 29 34 32 27 31 35 35 33 31 26 30 32 29 27 31 31 31 33 36 41 45 52 57 60 64 66 69 73 77 82 85 90 94 88 78
32 33 31 28 33 34 33 32 30 25 24 25 26 27 26 27 30 26 25 29 34 37 44 50 55 60 62 66 70 74 79 84 88 92 92 82 71 61
30 29 31 32 29 27 23 22 23 25 25 23 21 26 28 23 20 23 28 33 37 42 47 52 54 61 67 71 75 80 86 90 91 86 75 63 53 47
21 21 23 20 19 19 22 23 22 22 20 21 23 25 18 18 22 27 31 35 41 44 50 55 59 63 71 78 83 88 88 85 77 67 58 48 46 46
17 17 18 21 21 20 22 23 21 21 20 21 19 14 17 21 26 30 34 38 43 49 54 60 65 68 69 80 86 85 76 68 61 53 47 46 46 45
19 18 18 17 19 20 20 19 18 19 20 15 13 17 20 24 28 32 37 42 48 54 58 64 69 75 81 83 80 72 60 56 48 46 46 46 44 43
15 15 18 19 20 20 17 13 17 18 9 13 17 20 23 28 32 36 41 46 52 57 63 69 75 81 84 84 67 52 48 45 45 44 42 37 38 41
14 16 16 16 14 11 12 17 13 8 14 16 19 23 27 30 35 40 46 52 56 61 67 74 80 83 81 68 53 48 39 42 42 35 33 36 37 34
9 11 10 9 10 13 14 8 10 13 16 19 22 25 29 34 39 46 50 56 61 67 72 78 82 75 61 57 48 39 41 39 35 33 35 38 36 28
10 10 11 13 14 10 8 11 13 16 19 22 25 29 33 39 45 49 53 57 63 69 77 79 70 57 56 47 37 40 38 38 39 37 34 33 29 24
12 12 13 12 10 10 11 13 16 18 21 25 29 33 38 43 48 51 55 60 66 72 76 66 53 49 40 41 41 34 35 36 38 34 29 26 24 25
13 13 13 11 12 12 13 16 18 21 26 29 33 37 42 46 50 54 58 63 69 74 69 55 51 39 31 34 37 35 32 33 32 33 29 19 21 14
13 13 12 13 13 14 16 18 21 25 29 33 36 40 44 48 52 56 60 66 71 71 57 52 42 31 31 29 30 34 28 28 30 28 23 20 18 2
16 15 15 15 15 17 19 22 25 29 32 36 40 43 47 50 53 57 62 68 69 57 49 45 31 31 27 27 30 32 30 30 29 20 21 21 12 5
17 17 17 17 18 20 22 25 28 32 36 40 42 45 48 51 54 59 65 68 62 48 44 32 30 28 24 25 28 29 28 30 29 21 17 15 7 2
18 18 19 20 22 24 26 29 33 37 40 42 43 46 49 52 56 62 66 63 51 43 37 28 29 26 23 23 24 27 28 26 25 20 20 17 3 6
Wind_Direction
247 246 251 247 250 250 253 251 254 257 254 259 255 261 264 270 273 280 276 280 288 284 285 284 288 287 292 293 293 295 294 294 293 296 298 298 298 299
251 250 249 241 243 246 241 263 251 245 257 260 263 267 264 269 276 280 287 288 285 286 290 287 288 292 292 294 294 294 293 295 298 299 299 300 300 301
241 246 242 255 247 245 258 248 258 258 262 266 271 266 262 268 277 279 280 278 284 284 285 290 291 292 293 293 292 294 297 300 301 301 301 301 301 300
225 230 236 238 254 250 246 258 264 267 274 278 279 279 273 272 278 280 281 284 282 286 288 292 292 291 292 293 298 301 302 302 302 301 301 301 302 302
224 226 240 239 247 248 255 265 261 271 273 267 265 265 268 270 271 279 280 283 287 291 291 290 291 294 297 303 302 303 303 303 303 304 303 303 303 303
236 229 234 237 243 250 250 248 258 256 263 255 270 281 272 272 275 276 281 282 290 290 290 295 297 303 304 304 304 306 305 304 304 303 304 305 307 309
237 236 243 246 243 244 245 257 270 272 263 265 270 267 265 269 273 277 279 286 287 293 297 302 305 305 306 307 306 306 306 306 306 307 309 310 312 312
241 227 242 237 243 248 242 248 249 250 254 258 256 259 265 268 276 278 283 291 297 303 305 310 310 309 309 308 309 309 308 309 309 310 311 314 314 311
242 236 248 241 241 245 249 238 245 245 255 251 255 258 268 274 275 283 295 300 302 308 312 311 311 311 312 313 313 312 311 311 312 314 316 314 312 312
244 235 241 239 240 245 235 237 244 244 246 251 260 262 267 273 288 295 300 303 311 311 311 312 315 316 316 315 314 314 314 314 316 317 314 313 313 313
224 222 226 218 220 227 233 236 239 248 256 258 260 261 274 287 290 299 305 312 310 312 314 316 319 319 316 316 317 317 317 317 316 314 315 316 315 315
192 193 199 211 219 228 235 242 253 255 256 255 259 277 282 295 301 307 312 311 312 315 319 319 320 319 318 318 319 319 318 315 316 316 317 316 315 316
197 203 212 219 228 237 249 256 251 254 256 265 276 280 294 303 308 311 311 313 316 320 321 321 320 320 322 323 321 319 317 317 318 318 318 315 317 317
214 223 228 233 239 245 247 254 257 250 265 265 281 298 302 308 311 313 315 318 321 322 322 322 322 323 324 325 325 322 321 318 319 318 318 319 321 325
232 238 240 242 242 246 253 249 247 263 264 282 293 302 311 313 315 317 320 321 322 324 323 324 325 327 327 326 329 325 325 322 320 323 324 325 329 330
233 235 227 227 235 240 241 249 260 272 284 291 302 310 313 315 319 321 322 324 324 325 325 326 328 328 327 326 329 328 330 329 328 332 333 329 330 333
238 235 234 236 241 239 241 258 276 286 292 300 307 310 314 319 322 323 323 324 325 326 329 330 330 326 325 327 333 333 335 331 332 333 332 329 334 340
235 230 230 236 235 242 260 278 288 293 303 308 310 312 317 320 322 322 323 325 326 328 331 331 327 328 329 329 330 338 336 331 327 332 340 338 339 346
228 231 234 231 240 258 274 284 290 303 308 308 311 316 318 320 321 323 325 326 328 332 334 329 328 328 328 328 327 337 335 333 336 335 343 349 345 348
233 239 234 240 253 269 285 290 296 304 309 312 315 318 320 320 323 325 326 329 333 335 331 329 330 330 333 330 332 335 349 346 342 342 349 356 355 54
242 238 242 254 268 281 290 295 301 307 311 314 318 319 320 322 324 326 328 332 336 333 330 330 331 335 336 339 343 346 350 354 354 359 354 357 13 104
243 245 252 265 278 289 294 299 304 309 312 316 318 320 321 322 324 326 329 335 335 330 330 330 331 335 339 343 345 352 352 354 358 359 3 355 359 119
250 253 264 274 284 290 296 300 304 309 312 316 318 319 321 323 325 327 333 337 330 331 330 328 332 334 338 342 346 352 354 355 2 0 356 359 57 154
Height
5672 5679 5684 5689 5690 5691 5697 5699 5702 5704 5706 5708 5710 5709 5707 5707 5706 5703 5699 5698 5697 5693 5689 5685 5681 5678 5674 5669 5664 5659 5654 5648 5643 5635 5629 5623 5616 5608
5658 5664 5670 5675 5678 5682 5685 5689 5690 5691 5694 5695 5698 5697 5695 5695 5694 5691 5690 5686 5683 5681 5676 5672 5668 5664 5661 5656 5651 5646 5641 5634 5627 5621 5614 5606 5597 5588
5648 5653 5657 5661 5667 5671 5674 5678 5680 5680 5682 5684 5686 5685 5683 5684 5682 5680 5678 5673 5670 5668 5664 5661 5657 5653 5648 5644 5639 5632 5627 5620 5613 5605 5597 5588 5577 5568
5640 5644 5648 5652 5655 5659 5665 5667 5669 5670 5672 5674 5674 5674 5674 5672 5670 5667 5666 5663 5659 5656 5652 5650 5646 5642 5637 5632 5626 5619 5612 5605 5596 5588 5579 5569 5557 5545
5628 5634 5638 5643 5648 5652 5654 5658 5660 5662 5662 5662 5662 5663 5661 5661 5659 5658 5656 5654 5651 5646 5642 5641 5637 5632 5626 5619 5612 5605 5597 5588 5579 5569 5558 5547 5536 5523
5619 5625 5631 5635 5640 5643 5645 5649 5651 5651 5655 5653 5654 5654 5653 5651 5649 5648 5645 5645 5641 5638 5634 5632 5626 5619 5613 5607 5599 5590 5580 5571 5560 5550 5539 5526 5511 5496
5612 5618 5622 5626 5630 5632 5635 5639 5640 5641 5643 5644 5643 5644 5643 5643 5640 5638 5637 5634 5633 5629 5624 5620 5612 5606 5601 5592 5583 5573 5562 5551 5540 5529 5515 5501 5486 5470
5604 5609 5613 5618 5621 5624 5626 5628 5631 5633 5633 5634 5634 5634 5635 5634 5631 5632 5627 5625 5625 5619 5612 5604 5598 5592 5586 5576 5566 5554 5544 5532 5518 5505 5492 5476 5460 5445
5598 5602 5606 5609 5612 5615 5618 5620 5622 5624 5625 5626 5626 5628 5627 5625 5626 5622 5620 5618 5616 5608 5598 5595 5589 5578 5569 5558 5548 5536 5523 5509 5495 5481 5466 5449 5437 5426
5591 5595 5598 5602 5605 5608 5611 5614 5615 5616 5618 5618 5617 5621 5621 5619 5616 5614 5612 5610 5601 5597 5591 5585 5577 5563 5550 5539 5528 5516 5501 5485 5469 5455 5442 5430 5421 5413
5585 5589 5593 5596 5600 5603 5604 5606 5609 5610 5609 5612 5614 5616 5612 5609 5610 5608 5603 5595 5593 5588 5580 5571 5563 5553 5535 5519 5506 5492 5474 5460 5447 5436 5426 5416 5409 5402
5583 5586 5590 5593 5596 5598 5600 5601 5603 5604 5607 5609 5608 5606 5605 5604 5603 5597 5590 5588 5583 5577 5568 5557 5547 5539 5533 5510 5485 5470 5454 5441 5431 5421 5414 5406 5398 5391
5581 5584 5586 5589 5591 5593 5595 5597 5598 5600 5601 5601 5601 5601 5600 5596 5592 5588 5585 5579 5572 5563 5555 5544 5531 5519 5505 5496 5474 5454 5440 5429 5422 5414 5404 5395 5388 5379
5579 5581 5583 5586 5588 5590 5591 5592 5594 5595 5595 5596 5596 5594 5592 5588 5585 5580 5575 5568 5560 5550 5539 5527 5513 5499 5486 5472 5457 5445 5433 5420 5414 5406 5397 5389 5380 5371
5577 5579 5581 5583 5584 5586 5587 5589 5589 5590 5591 5591 5590 5587 5584 5581 5576 5571 5563 5556 5547 5536 5525 5511 5496 5479 5463 5451 5444 5433 5426 5417 5405 5399 5390 5382 5375 5367
5575 5577 5578 5579 5581 5583 5584 5585 5586 5587 5586 5585 5583 5581 5577 5572 5566 5560 5551 5541 5531 5519 5509 5495 5478 5463 5451 5439 5433 5425 5415 5406 5400 5392 5384 5375 5369 5362
5572 5574 5575 5577 5579 5580 5581 5582 5582 5581 5580 5579 5577 5573 5568 5562 5556 5548 5540 5531 5521 5507 5491 5475 5461 5449 5438 5431 5426 5417 5410 5400 5392 5387 5382 5371 5364 5359
5570 5571 5573 5574 5576 5577 5577 5577 5576 5576 5575 5572 5568 5564 5558 5552 5545 5538 5530 5520 5508 5496 5481 5466 5454 5442 5429 5420 5417 5415 5405 5396 5388 5382 5376 5369 5361 5356
5567 5568 5569 5571 5572 5572 5572 5572 5571 5570 5567 5564 5560 5555 5549 5543 5536 5528 5518 5507 5495 5483 5469 5457 5447 5439 5432 5422 5412 5408 5403 5393 5384 5377 5371 5366 5360 5355
5563 5564 5566 5567 5567 5567 5567 5566 5565 5563 5560 5556 5551 5546 5540 5533 5526 5517 5507 5495 5482 5469 5457 5448 5440 5433 5426 5420 5413 5405 5398 5391 5383 5375 5369 5364 5359 5355
5560 5561 5562 5562 5562 5562 5561 5560 5558 5555 5551 5547 5542 5536 5530 5523 5515 5506 5496 5485 5472 5459 5450 5442 5434 5429 5423 5416 5409 5402 5394 5389 5382 5375 5370 5364 5360 5358
5555 5556 5557 5557 5557 5556 5554 5553 5550 5547 5543 5538 5533 5527 5520 5513 5505 5496 5485 5475 5464 5453 5444 5437 5431 5425 5420 5414 5408 5401 5394 5387 5381 5375 5371 5366 5362 5360
5551 5551 5551 5551 5550 5549 5547 5545 5542 5538 5533 5528 5523 5517 5511 5503 5495 5486 5476 5465 5454 5446 5439 5433 5427 5422 5417 5413 5407 5401 5394 5388 5383 5376 5370 5365 5362 5361